sat.trackr.live / text

‹ back to catalog

STARLINK-5878

NORAD 55955 · 2023-037AT

PAYLOAD ACTIVE UNKNOWN

§ Identity

Operator
Country
US
Launch date
2023-03-17
Launch site
AFWTR
Launch vehicle
Mass (kg)
RCS (m²)

Purposes: comms

External: N2YO · Heavens-Above · Gunter

§ Orbital elements

Epoch: 2026-09-20T08:54:21.828672Z

Period
96.11 min
Inclination
69.9997°
Eccentricity
0.0002508
Mean motion
14.98322634 rev/d
Perigee alt
570.3 km
Apogee alt
573.8 km
Semi-major
6,950.2 km
B*
1.1513e-4
RAAN
133.6372°
Arg perigee
270.9943°
Mean anomaly
89.0928°
Rev number
19,363

§ Raw data

STARLINK-58781 55955U 23037AT  26263.37108598  .00001281  00000+0  11513-3 0  99992 55955  69.9997 133.6372 0002508 270.9943  89.0928 14.98322634193634

JSON: /api/v1/satellites/55955 · /tle

For live sub-satellite position, see the globe view (requires WebGL).

§ Visibility from observer

Set your observer location to see the next 7 days of passes ≥ 10°. The values pass through the URL so the page stays shareable.

No JS? Fill the form by hand. The geolocation button needs JavaScript.